Погода в Большом Куяше

Россия / Челябинская область     55°50′10″N   61°05′47″E
темп.,
°C
ветер,
м/с
пор.,
м/с
влажн.,
%
обл.,
%
осадки,
мм/ч
давл.,
гПа
погр.,
м
18 мая, вт
вт1823:00+16всв478428 1.7 1018217
02:00+15зюз2285100 2.1 101637
05:00+15ююз3486100 4.8 101680
08:00+20зсз4116543 1.9 1014433
11:00+25сз57430 1.9 10141680
14:00+27ссз573122 0.0 10133228
17:00+21ссв7105529 0.0 1015862
20:00+18св7106212 0.0 1017914
19 мая, ср
ср1923:00+15св610724 0.0 1020792
02:00+12ссв4107338 0.0 1021465
05:00+10св49820 0.0 1023409
08:00+13всв46661 0.0 1024795
11:00+16св45515 0.0 10241281
14:00+19всв45425 0.0 10241500
17:00+20всв3441100 0.0 10231598
20:00+17в235367 0.0 102342
20 мая, чт
чт2023:00+14в115883 0.0 102410
02:00+12ююв11645 0.0 102410
05:00+10з117019 0.0 102510
08:00+16юз125492 0.0 1025275
11:00+20ююз223967 0.0 10241163
14:00+23ю323290 0.0 10221459
17:00+23ююз223066 0.0 10211426
20:00+20ю234549 0.0 102142
21 мая, пт
пт2123:00+16ююз335254 0.0 102146
02:00+14юз34575 0.0 102155
05:00+13юз22580 0.0 102119
08:00+19ююз34450 0.0 1022263
11:00+24ю45300 0.0 10211481
14:00+25ю56282 0.0 10201857
17:00+25ю56270 0.0 10192011
20:00+21ю48430 0.0 1019188
22 мая, сб
сб2223:00+17ююз36480 0.0 102079
02:00+15ююз33515 0.0 102037
05:00+15зюз225310 0.0 102122
08:00+19зсз3455100 0.0 1021245
11:00+24зсз23415 0.1 10201429
14:00+23з4643100 0.0 1020586
17:00+26зюз353142 0.0 10202626
20:00+22зсз3448100 0.0 102068